QPF
0.02 0.02 0.04 0.03 0.02 0.01 0.01 0.01 0.01 0.03 0.05 0.03 0.01 0.01 0.01 0.01 0.01 0.01 0.03 0.03 0.03 0.04 0.05 0.06 0.07 0.06 0.04 0.04 0.05 0.07 0.07 0.05 0.04 0.04 0.05 0.05 0.06 0.07 0.09 0.08 0.05 0.03 0.04
0.01 0.01 0.04 0.04 0.01 0.01 0.01 0.01 0.01 0.02 0.03 0.02 0.01 0.01 0.01 0.01 0.01 0.01 0.02 0.03 0.03 0.04 0.04 0.05 0.05 0.06 0.04 0.04 0.05 0.06 0.04 0.03 0.04 0.05 0.06 0.06 0.07 0.09 0.09 0.08 0.04 0.04 0.05
0.01 0.01 0.03 0.05 0.03 0.01 0.01 0.01 0.01 0.02 0.02 0.01 0.01 0.01 0.01 0.01 0.01 0.01 0.02 0.02 0.03 0.03 0.03 0.04 0.04 0.05 0.04 0.03 0.04 0.04 0.04 0.04 0.04 0.05 0.04 0.03 0.06 0.10 0.08 0.07 0.04 0.04 0.06
0.01 0.01 0.01 0.04 0.04 0.02 0.01 0.01 0.01 0.02 0.01 0.01 0.01 0.01 0.01 0.01 0.01 0.01 0.02 0.01 0.01 0.02 0.02 0.02 0.03 0.03 0.03 0.02 0.02 0.03 0.04 0.04 0.05 0.03 0.01 0.01 0.02 0.08 0.09 0.06 0.04 0.05 0.05
0.01 0.01 0.01 0.03 0.04 0.04 0.02 0.02 0.02 0.02 0.02 0.01 0.01 0.01 0.01 0.01 0.01 0.01 0.01 0.01 0.01 0.01 0.02 0.01 0.02 0.01 0.01 0.01 0.01 0.02 0.04 0.03 0.02 0.01 0.01 0.01 0.02 0.07 0.08 0.06 0.05 0.05 0.04
0.03 0.02 0.03 0.03 0.03 0.05 0.03 0.02 0.02 0.02 0.02 0.01 0.01 0.01 0.01 0.02 0.02 0.02 0.01 0.01 0.01 0.01 0.01 0.01 0.02 0.01 0.01 0.01 0.02 0.03 0.04 0.03 0.01 0.00 0.01 0.02 0.02 0.05 0.05 0.04 0.05 0.04 0.03
0.05 0.04 0.04 0.04 0.04 0.04 0.03 0.02 0.01 0.01 0.01 0.02 0.02 0.02 0.02 0.03 0.03 0.02 0.01 0.00 0.00 0.01 0.01 0.01 0.01 0.01 0.02 0.02 0.03 0.03 0.05 0.04 0.01 0.00 0.00 0.01 0.02 0.04 0.04 0.03 0.04 0.04 0.03
0.04 0.04 0.04 0.04 0.04 0.03 0.03 0.04 0.03 0.02 0.02 0.02 0.03 0.03 0.02 0.02 0.02 0.01 0.00 0.00 0.01 0.01 0.01 0.01 0.01 0.01 0.01 0.02 0.02 0.03 0.04 0.04 0.01 0.00 0.00 0.01 0.02 0.03 0.03 0.03 0.03 0.03 0.03
0.05 0.05 0.03 0.02 0.03 0.05 0.04 0.05 0.04 0.03 0.03 0.03 0.03 0.02 0.02 0.02 0.01 0.01 0.01 0.01 0.01 0.01 0.01 0.01 0.01 0.02 0.01 0.01 0.02 0.03 0.05 0.06 0.01 0.00 0.00 0.01 0.02 0.02 0.02 0.02 0.02 0.02 0.02
0.08 0.06 0.03 0.03 0.04 0.05 0.05 0.06 0.05 0.03 0.02 0.03 0.03 0.03 0.02 0.01 0.01 0.02 0.02 0.02 0.01 0.00 0.01 0.01 0.01 0.01 0.01 0.01 0.01 0.03 0.05 0.06 0.03 0.01 0.01 0.01 0.02 0.02 0.02 0.02 0.02 0.02 0.03
0.11 0.08 0.06 0.04 0.04 0.04 0.04 0.06 0.07 0.07 0.05 0.04 0.03 0.03 0.02 0.01 0.01 0.01 0.01 0.03 0.02 0.01 0.01 0.01 0.01 0.01 0.01 0.01 0.02 0.03 0.03 0.03 0.04 0.03 0.02 0.03 0.03 0.02 0.02 0.02 0.02 0.02 0.02
0.12 0.07 0.07 0.06 0.05 0.04 0.05 0.07 0.10 0.10 0.07 0.05 0.04 0.03 0.02 0.01 0.01 0.01 0.02 0.04 0.04 0.02 0.01 0.02 0.02 0.01 0.01 0.01 0.01 0.01 0.02 0.01 0.02 0.03 0.03 0.05 0.05 0.03 0.02 0.01 0.01 0.02 0.02
0.09 0.07 0.06 0.07 0.07 0.06 0.06 0.06 0.05 0.05 0.04 0.03 0.03 0.03 0.02 0.01 0.01 0.02 0.02 0.03 0.03 0.03 0.02 0.03 0.04 0.01 0.01 0.01 0.01 0.01 0.01 0.02 0.02 0.03 0.03 0.06 0.07 0.05 0.04 0.04 0.03 0.02 0.02
0.09 0.06 0.05 0.07 0.08 0.07 0.05 0.05 0.03 0.05 0.05 0.03 0.02 0.02 0.03 0.03 0.03 0.02 0.02 0.01 0.01 0.01 0.01 0.02 0.02 0.02 0.01 0.01 0.01 0.01 0.01 0.01 0.02 0.03 0.02 0.06 0.07 0.07 0.05 0.05 0.05 0.05 0.03
0.10 0.08 0.06 0.07 0.07 0.08 0.08 0.07 0.04 0.04 0.04 0.03 0.03 0.03 0.03 0.04 0.05 0.04 0.02 0.01 0.01 0.01 0.02 0.02 0.02 0.02 0.02 0.01 0.02 0.02 0.02 0.02 0.02 0.03 0.03 0.06 0.07 0.06 0.06 0.05 0.05 0.06 0.05
0.09 0.06 0.07 0.07 0.08 0.08 0.09 0.08 0.07 0.05 0.05 0.04 0.04 0.04 0.03 0.03 0.03 0.03 0.03 0.02 0.01 0.02 0.04 0.04 0.04 0.03 0.02 0.02 0.04 0.03 0.04 0.04 0.03 0.04 0.05 0.06 0.08 0.08 0.07 0.08 0.08 0.08 0.06
0.09 0.08 0.07 0.07 0.09 0.12 0.12 0.09 0.07 0.06 0.06 0.06 0.05 0.04 0.03 0.03 0.03 0.03 0.03 0.02 0.01 0.01 0.03 0.04 0.04 0.03 0.02 0.02 0.04 0.04 0.06 0.06 0.05 0.05 0.05 0.06 0.07 0.09 0.11 0.12 0.13 0.12 0.10
0.09 0.09 0.08 0.06 0.07 0.10 0.11 0.11 0.09 0.08 0.09 0.09 0.07 0.05 0.04 0.05 0.04 0.04 0.03 0.03 0.01 0.01 0.02 0.03 0.03 0.02 0.02 0.02 0.03 0.04 0.07 0.09 0.07 0.06 0.05 0.05 0.06 0.07 0.10 0.14 0.16 0.14 0.13
0.09 0.08 0.09 0.10 0.10 0.10 0.10 0.11 0.11 0.12 0.11 0.10 0.08 0.06 0.06 0.04 0.03 0.03 0.02 0.02 0.01 0.01 0.02 0.02 0.02 0.02 0.02 0.01 0.02 0.03 0.05 0.07 0.09 0.08 0.06 0.06 0.07 0.06 0.09 0.13 0.17 0.17 0.16
0.09 0.10 0.11 0.13 0.14 0.13 0.12 0.13 0.12 0.11 0.10 0.09 0.10 0.06 0.05 0.04 0.03 0.02 0.02 0.02 0.02 0.02 0.02 0.01 0.02 0.03 0.03 0.02 0.02 0.02 0.04 0.06 0.06 0.06 0.05 0.05 0.07 0.07 0.09 0.10 0.11 0.14 0.18
0.08 0.09 0.12 0.12 0.13 0.11 0.09 0.09 0.08 0.07 0.07 0.08 0.09 0.08 0.07 0.05 0.04 0.04 0.04 0.03 0.02 0.02 0.03 0.03 0.03 0.03 0.03 0.03 0.02 0.02 0.04 0.05 0.05 0.05 0.04 0.05 0.06 0.07 0.07 0.09 0.10 0.11 0.13
0.07 0.07 0.11 0.10 0.11 0.13 0.10 0.08 0.07 0.07 0.08 0.07 0.08 0.08 0.07 0.05 0.04 0.04 0.03 0.03 0.03 0.03 0.03 0.02 0.01 0.01 0.02 0.03 0.03 0.01 0.01 0.02 0.03 0.03 0.04 0.05 0.06 0.05 0.06 0.08 0.08 0.10 0.13
0.05 0.05 0.07 0.08 0.08 0.11 0.11 0.08 0.05 0.05 0.05 0.06 0.06 0.07 0.06 0.05 0.04 0.03 0.02 0.02 0.02 0.02 0.02 0.01 0.01 0.00 0.01 0.01 0.01 0.00 0.00 0.01 0.01 0.01 0.03 0.04 0.04 0.06 0.07 0.08 0.08 0.09 0.09
0.04 0.03 0.05 0.06 0.06 0.06 0.09 0.08 0.04 0.03 0.03 0.04 0.03 0.04 0.04 0.04 0.03 0.02 0.02 0.02 0.02 0.02 0.01 0.01 0.01 0.00 0.00 0.01 0.01 0.00 0.00 0.01 0.01 0.01 0.02 0.03 0.04 0.05 0.06 0.06 0.07 0.10 0.11
0.02 0.02 0.03 0.04 0.04 0.05 0.06 0.06 0.05 0.03 0.03 0.03 0.03 0.03 0.04 0.03 0.03 0.02 0.02 0.02 0.02 0.02 0.01 0.01 0.01 0.01 0.01 0.01 0.00 0.00 0.00 0.00 0.00 0.01 0.01 0.02 0.03 0.03 0.04 0.04 0.04 0.06 0.08
0.02 0.02 0.03 0.03 0.04 0.05 0.05 0.05 0.04 0.03 0.03 0.02 0.02 0.02 0.03 0.04 0.02 0.02 0.02 0.01 0.01 0.02 0.01 0.01 0.01 0.01 0.01 0.01 0.00 0.00 0.00 0.00 0.00 0.00 0.00 0.01 0.02 0.02 0.03 0.02 0.03 0.03 0.03
MSLP
1010.92 1010.79 1010.82 1011.00 1011.31 1011.67 1012.03 1012.33 1012.54 1012.65 1012.69 1012.69 1012.71 1012.77 1012.91 1013.11 1013.35 1013.60 1013.81 1013.97 1014.07 1014.11 1014.11 1014.12 1014.15 1014.23 1014.34 1014.48 1014.64 1014.78 1014.90 1014.99 1015.07 1015.15 1015.25 1015.38 1015.56 1015.79 1016.05 1016.32 1016.60 1016.87 1017.11
1010.66 1010.66 1010.81 1011.09 1011.47 1011.87 1012.25 1012.55 1012.75 1012.86 1012.91 1012.93 1012.97 1013.07 1013.24 1013.46 1013.71 1013.95 1014.16 1014.31 1014.41 1014.45 1014.47 1014.49 1014.52 1014.59 1014.69 1014.80 1014.91 1015.02 1015.10 1015.17 1015.24 1015.33 1015.45 1015.61 1015.82 1016.06 1016.34 1016.62 1016.90 1017.16 1017.41
1010.39 1010.50 1010.75 1011.12 1011.56 1012.01 1012.42 1012.74 1012.96 1013.09 1013.16 1013.21 1013.28 1013.40 1013.58 1013.79 1014.02 1014.24 1014.43 1014.56 1014.65 1014.71 1014.75 1014.79 1014.85 1014.93 1015.02 1015.11 1015.19 1015.26 1015.31 1015.37 1015.44 1015.54 1015.68 1015.86 1016.09 1016.35 1016.62 1016.90 1017.16 1017.42 1017.65
1010.15 1010.35 1010.68 1011.12 1011.62 1012.12 1012.56 1012.92 1013.17 1013.34 1013.45 1013.54 1013.63 1013.76 1013.92 1014.11 1014.30 1014.48 1014.62 1014.74 1014.83 1014.91 1014.98 1015.06 1015.15 1015.25 1015.34 1015.42 1015.48 1015.52 1015.56 1015.61 1015.69 1015.81 1015.97 1016.17 1016.41 1016.66 1016.92 1017.17 1017.41 1017.64 1017.87
1009.97 1010.25 1010.65 1011.14 1011.68 1012.22 1012.70 1013.09 1013.39 1013.60 1013.75 1013.88 1014.00 1014.13 1014.28 1014.42 1014.56 1014.69 1014.79 1014.88 1014.98 1015.08 1015.19 1015.32 1015.45 1015.58 1015.68 1015.76 1015.80 1015.83 1015.87 1015.92 1016.01 1016.15 1016.34 1016.55 1016.79 1017.02 1017.25 1017.46 1017.66 1017.86 1018.07
1009.91 1010.24 1010.68 1011.21 1011.78 1012.33 1012.83 1013.25 1013.58 1013.84 1014.05 1014.21 1014.36 1014.50 1014.63 1014.74 1014.83 1014.91 1014.98 1015.05 1015.15 1015.27 1015.43 1015.60 1015.77 1015.93 1016.04 1016.12 1016.16 1016.18 1016.22 1016.28 1016.40 1016.56 1016.77 1016.99 1017.22 1017.43 1017.61 1017.78 1017.93 1018.09 1018.28
1009.97 1010.34 1010.81 1011.35 1011.92 1012.46 1012.96 1013.39 1013.75 1014.04 1014.29 1014.51 1014.69 1014.85 1014.98 1015.07 1015.13 1015.17 1015.22 1015.28 1015.38 1015.52 1015.71 1015.91 1016.12 1016.29 1016.41 1016.49 1016.52 1016.55 1016.59 1016.67 1016.81 1017.00 1017.23 1017.46 1017.68 1017.86 1018.00 1018.11 1018.21 1018.33 1018.50
1010.18 1010.58 1011.05 1011.58 1012.12 1012.63 1013.09 1013.51 1013.86 1014.19 1014.47 1014.74 1014.97 1015.17 1015.32 1015.41 1015.47 1015.49 1015.52 1015.57 1015.67 1015.83 1016.03 1016.25 1016.47 1016.64 1016.76 1016.83 1016.86 1016.88 1016.93 1017.03 1017.19 1017.41 1017.65 1017.90 1018.11 1018.27 1018.37 1018.44 1018.50 1018.58 1018.72
1010.52 1010.93 1011.40 1011.89 1012.38 1012.83 1013.23 1013.60 1013.94 1014.27 1014.59 1014.90 1015.19 1015.45 1015.64 1015.76 1015.83 1015.86 1015.89 1015.93 1016.03 1016.18 1016.37 1016.59 1016.80 1016.96 1017.07 1017.12 1017.13 1017.15 1017.20 1017.31 1017.49 1017.73 1018.00 1018.26 1018.47 1018.62 1018.70 1018.74 1018.77 1018.82 1018.94
1010.95 1011.37 1011.82 1012.27 1012.68 1013.05 1013.38 1013.68 1013.99 1014.31 1014.66 1015.02 1015.37 1015.68 1015.94 1016.11 1016.21 1016.26 1016.29 1016.33 1016.41 1016.54 1016.71 1016.90 1017.08 1017.22 1017.30 1017.34 1017.34 1017.35 1017.40 1017.51 1017.71 1017.96 1018.24 1018.50 1018.72 1018.87 1018.95 1018.98 1018.99 1019.03 1019.13
1011.44 1011.87 1012.30 1012.69 1013.02 1013.30 1013.54 1013.78 1014.03 1014.34 1014.70 1015.10 1015.51 1015.90 1016.21 1016.45 1016.59 1016.66 1016.69 1016.72 1016.78 1016.88 1017.02 1017.18 1017.32 1017.43 1017.49 1017.50 1017.48 1017.48 1017.52 1017.64 1017.83 1018.08 1018.36 1018.64 1018.87 1019.02 1019.11 1019.15 1019.17 1019.21 1019.31
1011.95 1012.37 1012.77 1013.11 1013.37 1013.56 1013.73 1013.89 1014.10 1014.39 1014.76 1015.19 1015.65 1016.10 1016.47 1016.76 1016.95 1017.04 1017.08 1017.10 1017.13 1017.20 1017.30 1017.41 1017.52 1017.60 1017.64 1017.64 1017.61 1017.60 1017.63 1017.73 1017.91 1018.14 1018.41 1018.68 1018.91 1019.09 1019.19 1019.26 1019.30 1019.36 1019.46
1012.42 1012.83 1013.21 1013.50 1013.70 1013.83 1013.93 1014.04 1014.22 1014.49 1014.86 1015.31 1015.81 1016.30 1016.72 1017.05 1017.27 1017.39 1017.43 1017.44 1017.45 1017.49 1017.55 1017.63 1017.72 1017.78 1017.80 1017.79 1017.77 1017.75 1017.77 1017.85 1017.99 1018.20 1018.44 1018.69 1018.91 1019.09 1019.22 1019.31 1019.38 1019.47 1019.59
1012.83 1013.23 1013.57 1013.82 1013.98 1014.07 1014.14 1014.23 1014.38 1014.64 1015.02 1015.48 1016.00 1016.50 1016.96 1017.31 1017.56 1017.69 1017.74 1017.75 1017.75 1017.76 1017.80 1017.86 1017.93 1017.98 1018.01 1018.01 1017.99 1017.97 1017.98 1018.03 1018.13 1018.29 1018.49 1018.70 1018.90 1019.07 1019.21 1019.33 1019.43 1019.55 1019.69
1013.15 1013.53 1013.84 1014.07 1014.21 1014.29 1014.35 1014.44 1014.60 1014.87 1015.24 1015.70 1016.21 1016.72 1017.17 1017.54 1017.80 1017.95 1018.01 1018.03 1018.02 1018.03 1018.06 1018.11 1018.17 1018.23 1018.28 1018.29 1018.29 1018.27 1018.27 1018.29 1018.35 1018.46 1018.59 1018.74 1018.90 1019.05 1019.19 1019.33 1019.46 1019.60 1019.76
1013.40 1013.73 1014.01 1014.22 1014.36 1014.47 1014.56 1014.68 1014.87 1015.15 1015.51 1015.96 1016.44 1016.93 1017.36 1017.72 1017.99 1018.15 1018.24 1018.27 1018.28 1018.30 1018.33 1018.39 1018.46 1018.53 1018.59 1018.63 1018.65 1018.65 1018.64 1018.64 1018.66 1018.70 1018.76 1018.85 1018.95 1019.06 1019.18 1019.31 1019.45 1019.61 1019.78
1013.58 1013.85 1014.09 1014.29 1014.46 1014.60 1014.76 1014.94 1015.17 1015.46 1015.83 1016.24 1016.68 1017.12 1017.52 1017.86 1018.12 1018.31 1018.42 1018.48 1018.52 1018.56 1018.61 1018.68 1018.76 1018.85 1018.93 1018.99 1019.03 1019.05 1019.05 1019.03 1019.01 1018.99 1018.99 1019.00 1019.04 1019.09 1019.18 1019.28 1019.41 1019.57 1019.74
1013.70 1013.90 1014.10 1014.30 1014.50 1014.71 1014.94 1015.19 1015.48 1015.80 1016.16 1016.54 1016.92 1017.30 1017.65 1017.96 1018.21 1018.42 1018.56 1018.67 1018.75 1018.82 1018.90 1018.97 1019.06 1019.16 1019.25 1019.33 1019.39 1019.43 1019.43 1019.41 1019.37 1019.31 1019.25 1019.19 1019.15 1019.15 1019.18 1019.24 1019.35 1019.48 1019.65
1013.80 1013.92 1014.07 1014.27 1014.51 1014.79 1015.11 1015.45 1015.80 1016.15 1016.50 1016.83 1017.15 1017.47 1017.76 1018.03 1018.28 1018.50 1018.69 1018.84 1018.97 1019.08 1019.17 1019.26 1019.35 1019.44 1019.53 1019.62 1019.69 1019.75 1019.77 1019.75 1019.70 1019.62 1019.51 1019.40 1019.30 1019.23 1019.19 1019.20 1019.26 1019.37 1019.51
1013.87 1013.92 1014.03 1014.23 1014.51 1014.87 1015.28 1015.70 1016.12 1016.50 1016.84 1017.13 1017.39 1017.63 1017.86 1018.10 1018.34 1018.58 1018.81 1019.02 1019.19 1019.34 1019.45 1019.54 1019.61 1019.69 1019.76 1019.85 1019.93 1020.00 1020.04 1020.05 1020.00 1019.91 1019.78 1019.63 1019.47 1019.34 1019.24 1019.19 1019.19 1019.25 1019.36
1013.92 1013.92 1014.00 1014.20 1014.52 1014.95 1015.44 1015.95 1016.42 1016.84 1017.17 1017.43 1017.63 1017.80 1017.99 1018.19 1018.43 1018.69 1018.96 1019.21 1019.43 1019.60 1019.73 1019.81 1019.86 1019.91 1019.96 1020.03 1020.11 1020.20 1020.27 1020.30 1020.28 1020.20 1020.06 1019.89 1019.69 1019.50 1019.33 1019.22 1019.16 1019.17 1019.23
1013.95 1013.91 1013.97 1014.18 1014.54 1015.02 1015.59 1016.17 1016.70 1017.15 1017.48 1017.71 1017.87 1018.00 1018.14 1018.32 1018.56 1018.83 1019.14 1019.43 1019.69 1019.88 1020.01 1020.08 1020.11 1020.12 1020.15 1020.20 1020.28 1020.37 1020.47 1020.53 1020.55 1020.49 1020.37 1020.18 1019.96 1019.73 1019.51 1019.33 1019.21 1019.16 1019.17
1013.94 1013.90 1013.95 1014.17 1014.55 1015.09 1015.71 1016.35 1016.93 1017.41 1017.76 1017.98 1018.12 1018.22 1018.34 1018.50 1018.74 1019.03 1019.36 1019.68 1019.97 1020.18 1020.30 1020.36 1020.36 1020.34 1020.34 1020.37 1020.45 1020.55 1020.67 1020.78 1020.83 1020.81 1020.71 1020.53 1020.30 1020.03 1019.77 1019.54 1019.36 1019.25 1019.21
1013.91 1013.87 1013.93 1014.16 1014.56 1015.12 1015.78 1016.46 1017.08 1017.59 1017.97 1018.20 1018.34 1018.44 1018.55 1018.71 1018.95 1019.25 1019.60 1019.94 1020.24 1020.46 1020.58 1020.62 1020.61 1020.57 1020.54 1020.56 1020.64 1020.76 1020.90 1021.04 1021.13 1021.15 1021.07 1020.91 1020.68 1020.41 1020.11 1019.84 1019.61 1019.44 1019.35
1013.83 1013.83 1013.91 1014.14 1014.55 1015.11 1015.78 1016.48 1017.13 1017.68 1018.08 1018.34 1018.50 1018.61 1018.73 1018.91 1019.15 1019.46 1019.82 1020.17 1020.47 1020.69 1020.82 1020.85 1020.83 1020.77 1020.74 1020.76 1020.83 1020.97 1021.13 1021.30 1021.42 1021.47 1021.43 1021.30 1021.08 1020.81 1020.51 1020.20 1019.94 1019.72 1019.57
1013.74 1013.78 1013.88 1014.11 1014.51 1015.06 1015.71 1016.41 1017.07 1017.64 1018.08 1018.38 1018.57 1018.72 1018.86 1019.05 1019.30 1019.62 1019.98 1020.33 1020.63 1020.85 1020.97 1021.01 1020.99 1020.94 1020.91 1020.93 1021.01 1021.15 1021.34 1021.52 1021.68 1021.76 1021.75 1021.65 1021.46 1021.20 1020.90 1020.59 1020.30 1020.05 1019.85
Thickness
5777 5778 5777 5776 5774 5773 5772 5771 5771 5770 5770 5770 5769 5769 5769 5768 5767 5766 5766 5765 5765 5764 5764 5763 5762 5762 5761 5760 5759 5758 5757 5756 5754 5753 5752 5750 5749 5748 5747 5745 5743 5742 5740
5782 5779 5777 5775 5773 5772 5770 5769 5768 5768 5768 5767 5767 5767 5767 5766 5766 5765 5764 5764 5763 5763 5762 5761 5760 5760 5759 5758 5758 5757 5756 5755 5753 5752 5750 5749 5747 5746 5745 5744 5742 5740 5739
5781 5778 5776 5774 5772 5770 5768 5767 5766 5766 5766 5765 5765 5765 5765 5764 5764 5763 5763 5762 5761 5761 5760 5759 5758 5758 5757 5756 5756 5755 5754 5753 5752 5751 5749 5747 5746 5745 5744 5743 5741 5739 5737
5779 5776 5774 5772 5770 5768 5767 5765 5764 5764 5764 5763 5763 5763 5762 5762 5762 5761 5761 5760 5760 5759 5758 5757 5756 5755 5755 5754 5754 5753 5752 5752 5751 5749 5748 5746 5745 5743 5742 5741 5739 5738 5736
5776 5774 5773 5771 5768 5766 5765 5764 5763 5762 5761 5761 5761 5761 5760 5760 5759 5759 5758 5758 5757 5757 5756 5755 5754 5753 5753 5752 5752 5751 5750 5750 5749 5747 5746 5745 5744 5742 5741 5739 5738 5736 5735
5772 5771 5770 5769 5767 5764 5762 5761 5760 5760 5759 5759 5758 5758 5758 5757 5756 5756 5756 5755 5755 5754 5753 5752 5752 5751 5751 5751 5750 5750 5749 5748 5746 5745 5744 5743 5742 5741 5739 5738 5736 5735 5733
5769 5768 5767 5766 5764 5762 5760 5759 5758 5757 5757 5756 5755 5755 5755 5754 5754 5753 5753 5753 5752 5751 5751 5750 5749 5749 5749 5749 5748 5748 5747 5746 5744 5743 5742 5741 5741 5740 5738 5736 5734 5733 5732
5766 5765 5763 5762 5760 5759 5757 5756 5755 5754 5754 5753 5753 5752 5751 5751 5750 5750 5750 5750 5749 5749 5748 5747 5747 5746 5746 5746 5746 5745 5745 5744 5742 5741 5740 5739 5738 5738 5736 5735 5733 5732 5730
5762 5761 5760 5759 5757 5755 5753 5752 5752 5751 5751 5750 5749 5748 5748 5748 5747 5747 5746 5746 5746 5745 5745 5744 5744 5743 5743 5743 5743 5743 5742 5741 5740 5739 5738 5737 5736 5735 5734 5733 5731 5730 5728
5757 5757 5756 5755 5754 5752 5750 5749 5749 5748 5747 5747 5746 5745 5745 5744 5744 5744 5743 5743 5742 5742 5742 5741 5741 5740 5740 5740 5740 5740 5740 5739 5738 5736 5736 5735 5734 5733 5732 5731 5730 5728 5727
5750 5752 5752 5751 5749 5748 5747 5746 5745 5745 5744 5744 5743 5742 5742 5741 5741 5740 5740 5740 5739 5739 5739 5738 5738 5738 5737 5738 5738 5738 5737 5736 5735 5734 5734 5733 5732 5731 5730 5729 5728 5727 5726
5744 5746 5747 5746 5745 5744 5743 5743 5742 5741 5740 5740 5739 5739 5738 5738 5737 5737 5737 5737 5737 5736 5736 5735 5735 5735 5734 5734 5734 5735 5735 5734 5733 5732 5732 5731 5730 5729 5728 5727 5726 5725 5724
5743 5743 5743 5742 5742 5740 5740 5739 5738 5737 5737 5736 5735 5735 5735 5734 5734 5734 5733 5733 5733 5733 5732 5732 5732 5731 5731 5731 5731 5731 5732 5731 5731 5730 5730 5729 5728 5727 5726 5725 5724 5723 5722
5740 5740 5739 5739 5738 5737 5737 5736 5735 5734 5733 5732 5732 5732 5731 5731 5730 5730 5730 5730 5730 5729 5729 5728 5728 5728 5728 5729 5729 5729 5729 5729 5729 5729 5728 5727 5726 5725 5724 5723 5722 5722 5721
5737 5737 5737 5737 5735 5734 5733 5733 5732 5730 5730 5729 5728 5728 5728 5728 5727 5727 5727 5726 5726 5726 5726 5725 5725 5725 5725 5725 5726 5726 5726 5726 5726 5725 5726 5725 5724 5723 5722 5721 5721 5720 5719
5735 5735 5735 5734 5733 5732 5730 5729 5728 5727 5727 5726 5725 5725 5725 5725 5725 5724 5724 5723 5724 5723 5723 5722 5722 5722 5722 5722 5723 5723 5723 5723 5723 5722 5722 5722 5722 5721 5720 5719 5718 5718 5717
5733 5732 5732 5731 5730 5729 5727 5726 5725 5724 5724 5723 5722 5722 5722 5722 5722 5721 5720 5721 5720 5720 5720 5719 5719 5718 5719 5719 5719 5720 5720 5719 5719 5719 5719 5719 5718 5718 5718 5717 5717 5716 5715
5731 5729 5729 5729 5726 5725 5724 5723 5721 5721 5720 5719 5719 5719 5719 5719 5719 5718 5718 5717 5717 5717 5717 5716 5715 5714 5714 5714 5715 5715 5716 5716 5716 5715 5716 5716 5715 5715 5715 5715 5714 5714 5713
5728 5726 5725 5725 5723 5722 5721 5720 5719 5718 5717 5716 5716 5716 5716 5716 5716 5716 5715 5714 5715 5714 5714 5713 5712 5711 5710 5710 5711 5711 5711 5712 5712 5712 5712 5712 5712 5712 5712 5712 5712 5712 5711
5724 5723 5722 5722 5720 5719 5717 5716 5715 5714 5713 5713 5713 5713 5713 5713 5712 5712 5711 5712 5712 5711 5710 5710 5708 5708 5707 5707 5708 5707 5707 5707 5708 5708 5709 5709 5709 5709 5709 5708 5708 5708 5708
5721 5720 5719 5718 5717 5716 5714 5713 5711 5710 5710 5709 5709 5710 5710 5709 5709 5709 5709 5709 5709 5708 5708 5707 5706 5704 5703 5703 5702 5700 5701 5703 5704 5704 5705 5705 5705 5705 5705 5705 5705 5705 5705
5719 5718 5717 5716 5716 5715 5714 5712 5711 5710 5707 5706 5706 5707 5707 5706 5706 5707 5706 5706 5705 5705 5704 5704 5704 5701 5700 5700 5698 5695 5692 5694 5697 5699 5700 5700 5701 5701 5701 5701 5701 5701 5701
5718 5718 5718 5715 5715 5714 5712 5710 5709 5707 5705 5702 5702 5703 5704 5704 5704 5704 5703 5703 5703 5702 5701 5701 5701 5700 5696 5695 5696 5694 5689 5687 5689 5692 5694 5695 5696 5697 5697 5697 5697 5697 5697
5719 5719 5717 5715 5714 5712 5712 5710 5708 5705 5702 5701 5701 5701 5701 5701 5701 5701 5701 5700 5700 5699 5699 5699 5698 5697 5696 5693 5693 5693 5692 5691 5687 5685 5688 5689 5691 5691 5692 5693 5693 5693 5693
5720 5718 5716 5714 5713 5712 5711 5709 5707 5704 5702 5700 5699 5698 5698 5698 5698 5698 5698 5698 5697 5696 5696 5696 5695 5695 5694 5692 5691 5689 5688 5687 5686 5684 5680 5682 5684 5686 5687 5688 5688 5689 5689
5719 5717 5715 5713 5711 5710 5709 5708 5706 5704 5701 5699 5697 5696 5695 5695 5696 5696 5696 5696 5695 5694 5693 5693 5692 5692 5691 5690 5689 5688 5687 5685 5683 5681 5678 5676 5677 5679 5682 5683 5683 5684 5684